Location: Grieser Field
(39.7333°N, 81.7975°W)
Time: 00:58:37
(UTC-04:00)

MOS 1-B - Visible Passes

Search period start: 23 May 2017 00:00
Search period end: 02 June 2017 00:00
Orbit: 905 x 914 km, 99.3° (Epoch: 21 May)

Date Brightness Start Highest point End Pass type
(mag) Time Alt. Az. Time Alt. Az. Time Alt. Az.
23 May 6.0 03:58:24 10° NE 04:03:22 29° E 04:08:18 10° SSE visible
24 May 5.8 04:03:42 10° NE 04:08:51 32° E 04:13:56 10° SSE visible
25 May 5.6 04:09:02 10° NNE 04:14:18 36° E 04:19:33 10° SSE visible
26 May 5.5 04:14:21 10° NNE 04:19:46 40° E 04:25:08 10° SSE visible
27 May 5.3 04:19:42 10° NNE 04:25:13 44° E 04:30:42 10° S visible
28 May 5.1 04:25:04 10° NNE 04:30:40 49° E 04:36:14 10° S visible
29 May 5.0 04:30:27 10° NNE 04:36:07 55° E 04:41:45 10° S visible
30 May 4.8 04:35:50 10° NNE 04:41:34 61° ESE 04:47:15 10° S visible
31 May 4.6 04:41:14 10° NNE 04:47:00 68° ESE 04:52:44 10° S visible
01 Jun 4.5 04:46:38 10° NNE 04:52:27 76° ESE 04:58:12 10° S visible
